Flag for Germany Weather past 2 weeks in Rathenow, Brandenburg, Germany

Now
87 °F

Sunny.


Feels Like: 92 °F
Forecast: 59 / 76 °F
Wind: 1 mph from Southeast

Location: Neuruppin

Current Time: Aug 31, 2015 at 6:26:56 PM

Latest Report: Aug 31, 2015 at 6:00 PM


Visibility: 6 mi

Pressure: 29.78 "Hg

Humidity: 59%

Dew point: 71 °F

Location of RathenowLocation

Historic Weather in Rathenow — Graph

°F

Rathenow temperature yesterday

Maximum temperature yesterday: 80 °F (at 2:00 PM)
Minimum temperature yesterday: 56 °F (at 7:00 AM)
Average temperature yesterday: 67 °F

Past Weeks' High & Low Weather Summary

 TemperatureHumidityPressure
High89 °F (Aug 31, 4:00 PM)99% (Aug 20, 3:00 AM)30.32 "Hg (Aug 20, 3:00 AM)
Low51 °F (Aug 29, 7:00 AM)32% (Aug 22, 3:00 PM)29.70 "Hg (Aug 24, 8:00 PM)
Average66 °F72%30.02 "Hg
* Reported Aug 16 4:00 PM — Aug 31 4:00 PM, Rathenow, Weather by CustomWeather, © 2015

Note: Actual official high and low records may vary slightly from our data, if they occured in-between our weather recording intervals... More about our weather records

Advertising

Rathenow weather history for previous 24 hours

 ConditionsComfort  
Time TempWeatherWind HumidityBarometerVisibility
4:00 PM
Mon, Aug 31
89 °FSunny.1 mph52%29.83 "Hg6 mi
3:00 PM88 °FScattered clouds.1 mph57%29.86 "Hg6 mi
2:00 PM85 °FScattered clouds.1 mph68%29.89 "Hg6 mi
1:00 PM82 °FOvercast.2 mph69%29.90 "Hg6 mi
12:00 PM78 °FSunny.1 mph74%29.91 "Hg6 mi
10:00 AM72 °FPartly sunny.1 mph79%29.93 "Hg6 mi
9:00 AM68 °FSunny.1 mph87%29.93 "Hg6 mi
8:00 AM66 °FScattered clouds.1 mph91%29.94 "Hg6 mi
7:00 AM64 °FOvercast.1 mph92%29.96 "Hg6 mi
5:00 AM64 °FClear.1 mph89%29.96 "Hg6 mi
4:00 AM65 °FClear.1 mph89%29.97 "Hg6 mi
3:00 AM65 °FClear.2 mph88%29.98 "Hg6 mi
2:00 AM66 °FClear.3 mph89%29.99 "Hg6 mi
1:00 AM67 °FClear.2 mph89%30.01 "Hg6 mi
11:00 PM
Sun, Aug 30
68 °FPassing clouds.1 mph88%30.03 "Hg6 mi
10:00 PM68 °FClear.2 mph86%30.03 "Hg6 mi
9:00 PM69 °FClear.1 mph87%30.03 "Hg6 mi
8:00 PM71 °FSunny.2 mph88%30.03 "Hg6 mi
7:00 PM72 °FPassing clouds.2 mph81%30.04 "Hg6 mi
6:00 PM72 °FPassing clouds.2 mph82%30.05 "Hg6 mi
Weather by CustomWeather, © 2015

See weather overviewHow to use our weather pages